Time,TemperatureF,DewpointF,PressureIn,WindDirection,WindDirectionDegrees,WindSpeedMPH,WindSpeedGustMPH,Humidity,HourlyPrecipIn,Conditions,Clouds,dailyrainin,SoftwareType,DateUTC
2013-02-11 00:01:00,81.0,81.0,29.78,NW,314,0.0,1.0,99,0.00,,,0.54,,2013-02-10 14:01:00,
2013-02-11 00:11:00,81.0,81.0,29.78,NW,314,0.0,1.0,99,0.00,,,0.54,,2013-02-10 14:11:00,
2013-02-11 00:21:00,81.0,81.0,29.78,NW,314,0.0,1.0,99,0.00,,,0.54,,2013-02-10 14:21:00,
2013-02-11 00:31:00,80.0,80.0,29.77,NW,314,0.0,2.0,99,0.00,,,0.50,,2013-02-10 14:31:00,
2013-02-11 00:41:00,80.0,80.0,29.77,NW,314,0.0,2.0,99,0.00,,,0.50,,2013-02-10 14:41:00,
2013-02-11 00:52:00,80.0,80.0,29.77,NW,314,0.0,2.0,99,0.00,,,0.50,,2013-02-10 14:52:00,
2013-02-11 01:01:00,80.0,80.0,29.77,NW,314,0.0,2.0,99,0.00,,,0.50,,2013-02-10 15:01:00,
2013-02-11 01:11:00,80.0,80.0,29.77,NW,314,0.0,2.0,99,0.00,,,0.50,,2013-02-10 15:11:00,
2013-02-11 01:21:00,80.0,80.0,29.77,North,0,0.0,0.0,99,0.00,,,0.45,,2013-02-10 15:21:00,
2013-02-11 01:31:00,80.0,80.0,29.77,NW,314,0.0,2.0,99,0.00,,,0.45,,2013-02-10 15:31:00,
2013-02-11 01:41:00,80.0,80.0,29.77,NW,314,0.0,2.0,99,0.00,,,0.45,,2013-02-10 15:41:00,
2013-02-11 01:51:00,79.0,79.0,29.76,NW,314,0.0,1.0,99,0.00,,,0.37,,2013-02-10 15:51:00,
2013-02-11 02:01:00,79.0,79.0,29.76,NW,314,0.0,1.0,99,0.00,,,0.37,,2013-02-10 16:01:00,
2013-02-11 02:11:00,80.0,80.0,29.75,NW,310,0.0,2.0,99,0.00,,,0.37,,2013-02-10 16:11:00,
2013-02-11 02:21:00,80.0,80.0,29.75,NW,310,0.0,2.0,99,0.00,,,0.37,,2013-02-10 16:21:00,
2013-02-11 02:32:00,80.0,80.0,29.75,NW,314,0.0,2.0,99,0.00,,,0.33,,2013-02-10 16:32:00,
2013-02-11 02:42:00,80.0,80.0,29.75,NW,314,0.0,2.0,99,0.00,,,0.33,,2013-02-10 16:42:00,
2013-02-11 02:51:00,80.0,80.0,29.75,NW,314,0.0,2.0,99,0.00,,,0.33,,2013-02-10 16:51:00,
2013-02-11 03:01:00,80.0,80.0,29.74,NW,314,0.0,2.0,99,0.00,,,0.33,,2013-02-10 17:01:00,
2013-02-11 03:11:00,80.0,80.0,29.74,NW,314,0.0,2.0,99,0.00,,,0.33,,2013-02-10 17:11:00,
2013-02-11 03:21:00,80.0,80.0,29.75,NW,314,0.0,2.0,99,0.00,,,0.33,,2013-02-10 17:21:00,
2013-02-11 03:31:00,80.0,80.0,29.75,NW,314,0.0,2.0,99,0.00,,,0.33,,2013-02-10 17:31:00,
2013-02-11 03:42:00,80.0,80.0,29.75,NW,314,0.0,2.0,99,0.00,,,0.33,,2013-02-10 17:42:00,
2013-02-11 03:52:00,80.0,80.0,29.75,NW,314,0.0,2.0,99,0.00,,,0.33,,2013-02-10 17:52:00,
2013-02-11 04:02:00,79.0,79.0,29.75,NW,314,0.0,1.0,99,0.00,,,0.30,,2013-02-10 18:02:00,
2013-02-11 04:11:00,79.0,79.0,29.75,NW,314,0.0,1.0,99,0.00,,,0.30,,2013-02-10 18:11:00,
2013-02-11 04:21:00,79.0,79.0,29.75,NW,314,0.0,1.0,99,0.00,,,0.30,,2013-02-10 18:21:00,
2013-02-11 04:31:00,79.0,79.0,29.75,NW,314,0.0,1.0,99,0.00,,,0.22,,2013-02-10 18:31:00,
2013-02-11 04:42:00,79.0,79.0,29.75,NW,314,0.0,1.0,99,0.00,,,0.22,,2013-02-10 18:42:00,
2013-02-11 04:52:00,78.0,78.0,29.75,NW,314,0.0,2.0,99,0.00,,,0.22,,2013-02-10 18:52:00,
2013-02-11 05:01:00,78.0,78.0,29.75,NW,317,0.0,3.0,99,0.00,,,0.22,,2013-02-10 19:01:00,
2013-02-11 05:11:00,78.0,78.0,29.75,NW,314,0.0,1.0,99,0.00,,,0.21,,2013-02-10 19:11:00,
2013-02-11 05:21:00,78.0,78.0,29.75,NW,314,0.0,1.0,99,0.00,,,0.21,,2013-02-10 19:21:00,
2013-02-11 05:31:00,78.0,78.0,29.76,North,0,0.0,0.0,99,0.00,,,0.21,,2013-02-10 19:31:00,
2013-02-11 05:42:00,78.0,78.0,29.76,North,0,0.0,0.0,99,0.00,,,0.21,,2013-02-10 19:42:00,
2013-02-11 05:51:00,78.0,78.0,29.76,North,0,0.0,0.0,99,0.00,,,0.21,,2013-02-10 19:51:00,
2013-02-11 06:01:00,78.0,78.0,29.76,NW,314,0.0,2.0,99,0.00,,,0.21,,2013-02-10 20:01:00,
2013-02-11 06:11:00,78.0,78.0,29.76,NW,314,0.0,2.0,99,0.00,,,0.21,,2013-02-10 20:11:00,
2013-02-11 06:21:00,78.0,78.0,29.76,NW,314,0.0,2.0,99,0.00,,,0.21,,2013-02-10 20:21:00,
2013-02-11 06:31:00,78.0,78.0,29.76,NW,314,0.0,2.0,99,0.00,,,0.21,,2013-02-10 20:31:00,
2013-02-11 06:42:00,78.0,78.0,29.79,SSE,167,3.0,6.0,99,0.07,,,0.27,,2013-02-10 20:42:00,
2013-02-11 06:52:00,78.0,78.0,29.79,SSE,167,3.0,6.0,99,0.07,,,0.27,,2013-02-10 20:52:00,
2013-02-11 07:02:00,77.0,77.0,29.79,SSW,201,0.0,2.0,99,0.25,,,0.45,,2013-02-10 21:02:00,
2013-02-11 07:11:00,77.0,77.0,29.79,SSW,201,0.0,2.0,99,0.25,,,0.45,,2013-02-10 21:11:00,
2013-02-11 07:21:00,78.0,78.0,29.80,WSW,248,0.0,1.0,99,0.25,,,0.45,,2013-02-10 21:21:00,
2013-02-11 07:32:00,78.0,78.0,29.79,North,0,0.0,0.0,99,0.25,,,0.45,,2013-02-10 21:32:00,
2013-02-11 07:41:00,78.0,78.0,29.79,North,0,0.0,0.0,99,0.25,,,0.45,,2013-02-10 21:41:00,
2013-02-11 07:51:00,78.0,78.0,29.79,North,0,0.0,0.0,99,0.25,,,0.45,,2013-02-10 21:51:00,
2013-02-11 08:01:00,78.0,78.0,29.79,North,0,0.0,0.0,99,0.25,,,0.45,,2013-02-10 22:01:00,
2013-02-11 08:32:00,86.0,86.0,29.81,NW,307,1.0,3.0,99,0.00,,,0.44,,2013-02-10 22:32:00,
2013-02-11 08:42:00,88.0,86.0,29.81,NW,321,1.0,2.0,95,0.00,,,0.44,,2013-02-10 22:42:00,
2013-02-11 08:52:00,88.0,86.0,29.81,NW,321,1.0,2.0,95,0.00,,,0.44,,2013-02-10 22:52:00,
2013-02-11 09:01:00,90.0,87.0,29.81,NW,318,1.0,4.0,90,0.00,,,0.41,,2013-02-10 23:01:00,
2013-02-11 09:11:00,90.0,87.0,29.81,NW,318,1.0,4.0,90,0.00,,,0.41,,2013-02-10 23:11:00,
2013-02-11 09:21:00,90.0,87.0,29.81,NW,318,1.0,4.0,90,0.00,,,0.41,,2013-02-10 23:21:00,
2013-02-11 09:31:00,92.0,87.0,29.82,NW,325,0.0,2.0,85,0.00,,,0.25,,2013-02-10 23:31:00,
2013-02-11 09:41:00,92.0,87.0,29.82,NW,325,0.0,2.0,85,0.00,,,0.25,,2013-02-10 23:41:00,
2013-02-11 09:52:00,92.0,87.0,29.82,NW,325,0.0,2.0,85,0.00,,,0.25,,2013-02-10 23:52:00,
2013-02-11 10:01:00,96.0,85.0,29.81,WSW,239,1.0,4.0,72,0.00,,,0.25,,2013-02-11 00:01:00,
2013-02-11 10:11:00,96.0,85.0,29.81,SSW,209,0.0,5.0,71,0.00,,,0.25,,2013-02-11 00:11:00,
2013-02-11 10:21:00,96.0,85.0,29.81,SSW,209,0.0,5.0,71,0.00,,,0.25,,2013-02-11 00:21:00,
2013-02-11 10:31:00,96.0,84.0,29.81,NNW,337,2.0,5.0,69,0.00,,,0.25,,2013-02-11 00:31:00,
2013-02-11 10:41:00,96.0,84.0,29.81,NNW,337,2.0,5.0,69,0.00,,,0.25,,2013-02-11 00:41:00,
2013-02-11 10:51:00,96.0,85.0,29.81,SW,230,0.0,6.0,71,0.00,,,0.25,,2013-02-11 00:51:00,
2013-02-11 11:01:00,97.0,85.0,29.80,West,270,1.0,4.0,68,0.00,,,0.25,,2013-02-11 01:01:00,
2013-02-11 11:11:00,97.0,85.0,29.80,West,270,1.0,4.0,68,0.00,,,0.25,,2013-02-11 01:11:00,
2013-02-11 11:21:00,96.0,84.0,29.80,South,179,3.0,6.0,68,0.00,,,0.25,,2013-02-11 01:21:00,
2013-02-11 11:32:00,97.0,85.0,29.80,South,185,2.0,8.0,68,0.00,,,0.25,,2013-02-11 01:32:00,
2013-02-11 11:41:00,97.0,85.0,29.80,South,174,3.0,7.0,68,0.00,,,0.25,,2013-02-11 01:41:00,
2013-02-11 11:52:00,97.0,85.0,29.80,South,174,3.0,7.0,68,0.00,,,0.25,,2013-02-11 01:52:00,
2013-02-11 12:01:00,97.0,85.0,29.80,South,174,3.0,7.0,68,0.00,,,0.25,,2013-02-11 02:01:00,
2013-02-11 12:11:00,97.0,85.0,29.80,South,174,3.0,7.0,68,0.00,,,0.25,,2013-02-11 02:11:00,
2013-02-11 12:21:00,97.0,85.0,29.80,South,174,3.0,7.0,68,0.00,,,0.25,,2013-02-11 02:21:00,
2013-02-11 12:32:00,97.0,86.0,29.79,SSE,160,2.0,8.0,70,0.00,,,0.25,,2013-02-11 02:32:00,
2013-02-11 12:42:00,97.0,86.0,29.78,SSE,155,1.0,9.0,72,0.00,,,0.25,,2013-02-11 02:42:00,
2013-02-11 12:52:00,97.0,86.0,29.78,SSE,155,1.0,9.0,72,0.00,,,0.25,,2013-02-11 02:52:00,
2013-02-11 13:01:00,96.0,86.0,29.76,SSE,165,2.0,10.0,73,0.00,,,0.25,,2013-02-11 03:01:00,
2013-02-11 13:11:00,96.0,86.0,29.76,SSE,165,2.0,10.0,73,0.00,,,0.25,,2013-02-11 03:11:00,
2013-02-11 13:21:00,96.0,86.0,29.77,South,169,3.0,8.0,73,0.00,,,0.25,,2013-02-11 03:21:00,
2013-02-11 13:31:00,97.0,86.0,29.75,SSW,198,2.0,9.0,72,0.00,,,0.25,,2013-02-11 03:31:00,
2013-02-11 13:41:00,97.0,87.0,29.75,South,170,1.0,10.0,73,0.00,,,0.25,,2013-02-11 03:41:00,
2013-02-11 13:51:00,97.0,87.0,29.75,South,170,1.0,10.0,73,0.00,,,0.25,,2013-02-11 03:51:00,
2013-02-11 14:01:00,97.0,87.0,29.75,South,170,1.0,10.0,73,0.00,,,0.25,,2013-02-11 04:01:00,
2013-02-11 14:11:00,97.0,87.0,29.75,South,170,1.0,10.0,73,0.00,,,0.25,,2013-02-11 04:11:00,
2013-02-11 14:21:00,98.0,84.0,29.73,SSW,192,2.0,10.0,65,0.00,,,0.25,,2013-02-11 04:21:00,
2013-02-11 14:31:00,97.0,86.0,29.72,South,190,4.0,8.0,70,0.00,,,0.25,,2013-02-11 04:31:00,
2013-02-11 14:42:00,97.0,86.0,29.72,South,190,4.0,8.0,70,0.00,,,0.25,,2013-02-11 04:42:00,
2013-02-11 14:51:00,97.0,86.0,29.72,South,190,4.0,8.0,70,0.00,,,0.25,,2013-02-11 04:51:00,
2013-02-11 15:01:00,98.0,87.0,29.71,SSW,204,2.0,11.0,71,0.00,,,0.25,,2013-02-11 05:01:00,
2013-02-11 15:11:00,98.0,87.0,29.71,SSW,204,2.0,11.0,71,0.00,,,0.25,,2013-02-11 05:11:00,
2013-02-11 15:22:00,98.0,87.0,29.71,SSW,204,2.0,11.0,71,0.00,,,0.25,,2013-02-11 05:22:00,
2013-02-11 15:31:00,98.0,87.0,29.71,SSW,204,2.0,11.0,71,0.00,,,0.25,,2013-02-11 05:31:00,
2013-02-11 15:41:00,98.0,87.0,29.71,SSW,204,2.0,11.0,71,0.00,,,0.25,,2013-02-11 05:41:00,
2013-02-11 16:01:00,98.0,85.0,29.71,SSW,209,2.0,8.0,66,0.00,,,0.25,,2013-02-11 06:01:00,
2013-02-11 16:11:00,98.0,85.0,29.71,SSW,209,2.0,8.0,66,0.00,,,0.25,,2013-02-11 06:11:00,
2013-02-11 16:21:00,98.0,85.0,29.71,SSW,209,2.0,8.0,66,0.00,,,0.25,,2013-02-11 06:21:00,
2013-02-11 16:31:00,98.0,85.0,29.71,SW,220,2.0,10.0,67,0.00,,,0.25,,2013-02-11 06:31:00,
2013-02-11 16:41:00,98.0,85.0,29.71,SSW,212,3.0,8.0,66,0.00,,,0.25,,2013-02-11 06:41:00,
2013-02-11 16:52:00,98.0,85.0,29.71,SSW,212,3.0,8.0,66,0.00,,,0.25,,2013-02-11 06:52:00,
2013-02-11 17:01:00,96.0,84.0,29.71,WSW,251,3.0,11.0,68,0.00,,,0.25,,2013-02-11 07:01:00,
2013-02-11 17:11:00,96.0,85.0,29.71,SW,230,1.0,12.0,71,0.00,,,0.25,,2013-02-11 07:11:00,
2013-02-11 17:21:00,96.0,85.0,29.71,SW,230,1.0,12.0,71,0.00,,,0.25,,2013-02-11 07:21:00,
2013-02-11 17:31:00,96.0,84.0,29.71,WSW,258,0.0,6.0,69,0.00,,,0.25,,2013-02-11 07:31:00,
2013-02-11 17:41:00,92.0,83.0,29.72,NNW,335,1.0,6.0,75,0.00,,,0.25,,2013-02-11 07:41:00,
2013-02-11 17:51:00,92.0,83.0,29.72,NNW,335,1.0,6.0,75,0.00,,,0.25,,2013-02-11 07:51:00,
2013-02-11 18:01:00,92.0,83.0,29.72,NNW,335,1.0,6.0,75,0.00,,,0.25,,2013-02-11 08:01:00,
2013-02-11 18:11:00,92.0,83.0,29.72,NNW,335,1.0,6.0,75,0.00,,,0.25,,2013-02-11 08:11:00,
2013-02-11 18:21:00,92.0,83.0,29.72,NNW,335,1.0,6.0,75,0.00,,,0.25,,2013-02-11 08:21:00,
2013-02-11 18:32:00,87.0,85.0,29.73,WNW,299,2.0,8.0,94,0.00,,,0.25,,2013-02-11 08:32:00,
2013-02-11 18:42:00,86.0,84.0,29.73,NNW,330,1.0,4.0,94,0.00,,,0.25,,2013-02-11 08:42:00,
2013-02-11 18:52:00,86.0,84.0,29.73,NNW,330,1.0,4.0,94,0.00,,,0.25,,2013-02-11 08:52:00,
2013-02-11 19:01:00,85.0,83.0,29.73,NW,307,0.0,3.0,95,0.00,,,0.25,,2013-02-11 09:01:00,
2013-02-11 19:12:00,85.0,83.0,29.73,NW,307,0.0,3.0,95,0.00,,,0.25,,2013-02-11 09:12:00,
2013-02-11 19:21:00,85.0,83.0,29.73,NW,307,0.0,3.0,95,0.00,,,0.25,,2013-02-11 09:21:00,
2013-02-11 19:31:00,84.0,83.0,29.75,WNW,289,0.0,2.0,98,0.00,,,0.25,,2013-02-11 09:31:00,
2013-02-11 19:42:00,84.0,83.0,29.75,WNW,289,0.0,2.0,98,0.00,,,0.25,,2013-02-11 09:42:00,
2013-02-11 19:52:00,84.0,83.0,29.75,WNW,289,0.0,2.0,98,0.00,,,0.25,,2013-02-11 09:52:00,
2013-02-11 20:01:00,84.0,83.0,29.75,NW,314,0.0,2.0,98,0.00,,,0.25,,2013-02-11 10:01:00,
2013-02-11 20:11:00,84.0,83.0,29.75,NW,314,0.0,2.0,98,0.00,,,0.25,,2013-02-11 10:11:00,
2013-02-11 20:21:00,84.0,83.0,29.75,NW,314,0.0,2.0,98,0.00,,,0.25,,2013-02-11 10:21:00,
2013-02-11 20:31:00,84.0,84.0,29.76,NW,312,0.0,2.0,99,0.00,,,0.25,,2013-02-11 10:31:00,
2013-02-11 20:41:00,84.0,84.0,29.76,NW,312,0.0,2.0,99,0.00,,,0.25,,2013-02-11 10:41:00,
2013-02-11 20:52:00,84.0,84.0,29.76,WNW,302,0.0,2.0,99,0.00,,,0.25,,2013-02-11 10:52:00,
2013-02-11 21:01:00,84.0,84.0,29.77,NW,314,0.0,2.0,99,0.00,,,0.25,,2013-02-11 11:01:00,
2013-02-11 21:11:00,84.0,84.0,29.77,NW,314,0.0,2.0,99,0.00,,,0.25,,2013-02-11 11:11:00,
2013-02-11 21:21:00,84.0,84.0,29.77,NW,314,0.0,2.0,99,0.00,,,0.25,,2013-02-11 11:21:00,
2013-02-11 21:32:00,84.0,84.0,29.77,NW,314,0.0,2.0,99,0.00,,,0.25,,2013-02-11 11:32:00,
2013-02-11 21:42:00,83.0,83.0,29.78,NW,314,0.0,2.0,99,0.00,,,0.25,,2013-02-11 11:42:00,
2013-02-11 21:52:00,83.0,83.0,29.78,NW,314,0.0,2.0,99,0.00,,,0.25,,2013-02-11 11:52:00,
2013-02-11 22:02:00,83.0,83.0,29.79,NW,314,0.0,2.0,99,0.00,,,0.25,,2013-02-11 12:02:00,
2013-02-11 22:12:00,83.0,83.0,29.79,NW,314,0.0,2.0,99,0.00,,,0.25,,2013-02-11 12:12:00,
2013-02-11 22:22:00,83.0,83.0,29.79,NW,314,0.0,2.0,99,0.00,,,0.25,,2013-02-11 12:22:00,
2013-02-11 22:31:00,83.0,83.0,29.79,NW,314,0.0,2.0,99,0.00,,,0.25,,2013-02-11 12:31:00,
2013-02-11 22:42:00,83.0,83.0,29.79,NW,314,0.0,2.0,99,0.00,,,0.25,,2013-02-11 12:42:00,
2013-02-11 23:01:00,83.0,83.0,29.80,NW,307,0.0,2.0,99,0.00,,,0.25,,2013-02-11 13:01:00,
2013-02-11 23:11:00,83.0,83.0,29.80,NW,314,0.0,2.0,99,0.00,,,0.25,,2013-02-11 13:11:00,
2013-02-11 23:21:00,83.0,83.0,29.80,NW,314,0.0,2.0,99,0.00,,,0.25,,2013-02-11 13:21:00,
2013-02-11 23:32:00,83.0,83.0,29.80,NW,314,0.0,2.0,99,0.00,,,0.25,,2013-02-11 13:32:00,
2013-02-11 23:41:00,83.0,83.0,29.80,NW,314,0.0,2.0,99,0.00,,,0.25,,2013-02-11 13:41:00,
2013-02-11 23:51:00,83.0,83.0,29.79,NW,317,0.0,3.0,99,0.00,,,0.25,,2013-02-11 13:51:00,